Погода в Пеля-Хованской

Россия / Нижегородская область     54°35′45″N   44°55′56″E
темп.,
°C
ветер,
м/с
пор.,
м/с
влажн.,
%
обл.,
%
осадки,
мм/ч
давл.,
гПа
погр.,
м
14 апреля, ср
ср1400:00+10ююв336111 0.0 102936
03:00+8ююв336360 0.0 102830
06:00+7юв336726 0.0 102735
09:00+13ююв48535 0.0 1027295
12:00+18ююв684193 0.0 1025974
15:00+19ююв68420 0.0 10231609
18:00+17ююв48561 0.0 1022170
21:00+12юв33717 0.0 102237
15 апреля, чт
чт1500:00+10юв338565 0.0 102126
03:00+9ююв228813 0.0 102115
06:00+8ююв228879 0.0 102014
09:00+13ююв2466100 0.0 1020278
12:00+17юв2245100 0.0 1019979
15:00+18в223681 0.0 10181191
18:00+16всв22475 0.0 101820
21:00+12всв33640 0.0 101832
16 апреля, пт
пт1600:00+10всв227211 0.0 101819
03:00+8св498917 0.0 1019156
06:00+8св5894100 0.0 1020342
09:00+9всв6886100 0.0 1021474
12:00+13всв676726 0.0 1021789
15:00+14всв776351 0.0 10221028
18:00+12св596938 0.0 1022664
21:00+9всв512815 0.0 1024416
17 апреля, сб
сб1700:00+7всв5117954 0.0 1024350
03:00+5всв511769 0.0 1025335
06:00+4всв512775 0.0 1026385
09:00+8всв710605 0.0 1026627
12:00+12всв78455 0.0 10261051
15:00+13всв78335 0.0 10261278
18:00+11всв59390 0.0 1026653
21:00+7всв411555 0.0 1027270
18 апреля, вс
вс1800:00+5всв39647 0.0 1028200
03:00+4всв37725 0.0 1029140
06:00+3св38741 0.0 1029185
09:00+8всв47551 0.0 1029619
12:00+11всв5645100 0.0 10281468
15:00+12всв6742100 0.0 10281683
18:00+11всв5848100 0.0 1029716
21:00+8св51161100 0.0 1030434